Flag for Brazil Weather past 2 weeks in Volta Redonda, Rio de Janeiro, Brazil

Now
82 °F

Passing clouds.


Feels Like: 85 °F
Forecast: 58 / 83 °F
Wind: 12 mph from Southeast

Location: Galeao


UV Index: 5 (Moderate)

Visibility: N/A


Pressure: 29.86 "Hg

Humidity: 58%

Dew point: 66 °F

Location of Volta RedondaLocation

Historic Weather in Volta Redonda

°F

Volta Redonda temperature yesterday

Maximum temperature yesterday: 82 °F (at 1:00 PM)
Minimum temperature yesterday: 72 °F (at 12:00 AM)
Average temperature yesterday: 75 °F

Past Weeks' High & Low Weather Summary

 TemperatureHumidityPressure
High93 °F (Apr 12, 1:00 PM)94% (Apr 4, 2:00 AM)30.15 "Hg (Apr 4, 2:00 AM)
Low66 °F (Apr 6, 5:00 AM)32% (Apr 12, 4:00 PM)29.74 "Hg (Apr 9, 3:00 PM)
Average77 °F74%29.97 "Hg
* Reported Apr 3 2:00 PM — Apr 18 2:00 PM, Volta Redonda, Weather by CustomWeather, © 2014

Note: Actual official high and low records may vary slightly from our data, if they occured in-between our weather recording intervals... More about our weather records

Advertising

Historic Weather Conditions — Data for Previous 24 hours

 ConditionsComfort  
Time TempWeatherWind HumidityBarometerVisibility
2:00 PM
Apr 18
84 °FPassing clouds.8 mph51%29.86 "HgN/A
1:00 PM86 °FSunny.3 mph49%29.89 "Hg10 mi
12:00 PM84 °FSunny.6 mph51%29.92 "Hg10 mi
11:00 AM82 °FClear.6 mph62%29.95 "Hg4 mi
10:00 AM81 °FHaze.6 mph70%29.98 "Hg3 mi
9:00 AM79 °FPassing clouds.3 mph70%29.98 "Hg4 mi
8:00 AM75 °FFog.3 mph83%29.95 "Hg3 mi
7:00 AM72 °FClear.2 mph94%29.95 "Hg4 mi
6:00 AM72 °FClear.2 mph88%29.95 "Hg4 mi
5:00 AM72 °FPassing clouds.2 mph88%29.95 "HgN/A
4:00 AM72 °FPassing clouds.2 mph88%29.95 "Hg5 mi
3:00 AM72 °FPassing clouds.2 mph88%29.95 "HgN/A
2:00 AM72 °FClear.2 mph88%29.98 "Hg10 mi
1:00 AM72 °FClear.3 mph88%29.98 "Hg10 mi
12:00 AM72 °FClear.2 mph88%29.98 "Hg10 mi
11:00 PM
Apr 17
73 °FClear.5 mph83%29.98 "Hg10 mi
10:00 PM75 °FPassing clouds.5 mph78%29.98 "HgN/A
9:00 PM75 °FPassing clouds.7 mph78%30.01 "HgN/A
8:00 PM75 °FPassing clouds.6 mph78%30.01 "HgN/A
7:00 PM75 °FPassing clouds.6 mph74%29.98 "HgN/A
6:00 PM75 °FPassing clouds.9 mph78%29.95 "HgN/A
5:00 PM77 °FPassing clouds.9 mph69%29.95 "HgN/A
4:00 PM79 °FPassing clouds.13 mph70%29.95 "HgN/A
3:00 PM81 °FScattered clouds.12 mph62%29.95 "HgN/A
Weather by CustomWeather, © 2014

See weather overview